sat.trackr.live / text

‹ back to catalog

STARLINK-31078

NORAD 58638 · 2023-203W

PAYLOAD ACTIVE UNKNOWN

§ Identity

Operator
Country
US
Launch date
2023-12-23
Launch site
AFETR
Launch vehicle
Mass (kg)
RCS (m²)

Purposes: comms

External: N2YO · Heavens-Above · Gunter

§ Orbital elements

Epoch: 2026-09-19T17:17:55.979520Z

Period
94.27 min
Inclination
43.0033°
Eccentricity
0.0000973
Mean motion
15.27579261 rev/d
Perigee alt
482.4 km
Apogee alt
483.7 km
Semi-major
6,861.2 km
B*
2.2425e-5
RAAN
51.5065°
Arg perigee
271.9654°
Mean anomaly
88.1086°
Rev number
15,323

§ Raw data

STARLINK-310781 58638U 23203W   26262.72078680  .00000355  00000+0  22425-4 0  99972 58638  43.0033  51.5065 0000973 271.9654  88.1086 15.27579261153230

JSON: /api/v1/satellites/58638 · /tle

For live sub-satellite position, see the globe view (requires WebGL).

§ Visibility from observer

Set your observer location to see the next 7 days of passes ≥ 10°. The values pass through the URL so the page stays shareable.

No JS? Fill the form by hand. The geolocation button needs JavaScript.